GFSNE_sfc_thetae_057.txt.gz
Theta_e
337 337 334 333 334 335 334 340 336 324 326 332 333 341 346 342 340 340 338 326 326 323 323 324 326 327 327 326 326 327 328 328 328 328 328 327 327 327
334 335 335 336 337 336 336 339 338 327 327 336 334 339 341 337 336 342 342 329 324 322 323 322 322 322 323 322 323 324 325 325 325 326 327 327 328 329
336 334 334 336 338 339 337 333 339 337 331 329 329 331 333 336 337 342 338 338 329 322 323 321 319 319 320 320 320 322 323 323 323 324 325 325 326 327
333 333 332 335 335 337 340 337 337 336 332 325 325 325 327 334 338 334 331 333 330 322 319 318 317 317 316 316 316 317 316 317 319 321 322 323 324 326
334 330 330 332 330 337 335 334 340 338 336 326 321 322 322 327 327 326 325 325 323 321 317 316 315 315 314 312 311 310 311 312 313 315 318 320 321 322
331 329 327 325 329 331 329 335 337 335 334 325 320 320 319 321 322 318 316 319 319 321 320 318 316 314 313 312 312 313 311 310 310 311 312 312 313 314
329 328 328 326 322 322 332 336 335 335 327 321 321 319 316 316 316 318 315 316 316 318 318 318 318 316 314 313 317 316 311 309 309 309 309 308 307 308
327 326 327 321 320 314 316 315 329 332 328 323 321 317 317 316 317 316 314 312 309 319 316 315 321 316 315 319 314 312 309 308 308 308 307 306 305 305
327 325 324 326 323 329 316 314 314 314 320 329 323 320 316 317 317 316 316 316 313 315 315 311 319 317 321 318 310 308 307 306 305 305 305 305 304 302
327 326 324 329 329 328 330 329 330 329 327 328 326 323 322 321 318 318 319 316 315 316 318 309 314 314 318 322 307 306 305 303 303 304 304 303 302 300
327 326 326 328 307 309 329 327 327 327 308 308 309 305 303 305 313 317 314 313 311 313 319 313 315 316 322 320 316 305 304 303 302 302 302 302 301 300
324 320 308 321 302 304 329 330 325 324 324 320 317 310 313 311 308 318 316 313 312 312 320 317 318 320 316 322 321 313 313 302 301 301 301 301 300 308
324 324 320 302 300 302 307 333 325 326 316 321 320 318 317 318 319 320 321 317 315 317 321 324 321 320 320 318 321 322 319 317 311 307 299 299 299 302
326 326 318 298 298 301 310 301 303 315 325 321 318 317 316 317 318 323 322 320 323 327 327 327 323 323 321 319 316 322 321 318 318 316 317 308 298 298
325 302 296 295 296 302 299 302 306 326 323 319 318 318 319 320 320 322 322 322 329 331 329 331 328 328 325 321 319 319 316 319 323 322 323 323 320 310
309 315 304 303 303 307 312 314 325 324 321 319 318 320 321 321 319 324 322 323 326 324 331 331 329 328 321 322 323 327 324 321 326 326 325 326 327 327
317 319 316 314 312 315 319 323 323 323 323 321 321 319 319 320 320 324 325 325 323 322 322 326 327 328 325 328 324 327 327 329 331 331 329 327 328 328
320 318 316 315 315 317 317 319 321 319 322 321 320 318 318 320 320 322 326 325 323 324 321 323 322 323 323 326 322 327 330 329 331 332 332 328 328 332
320 318 316 316 317 318 318 318 319 323 323 322 322 322 322 323 321 323 324 324 323 325 324 324 323 322 319 317 326 316 329 329 329 329 330 329 328 331
322 320 318 318 318 318 320 320 321 322 324 325 326 326 327 326 323 323 324 324 324 324 323 324 325 326 323 321 322 328 301 332 329 329 328 330 328 302
321 324 322 320 321 321 322 323 326 326 326 327 328 327 327 324 324 325 325 307 312 323 320 322 327 304 331 332 326 325 330 301 316 330 330 328 327 327
325 327 325 323 322 324 325 326 327 326 327 327 328 328 327 327 326 326 326 324 323 322 322 325 331 329 329 325 325 327 328 331 313 305 303 310 324 321
326 328 328 328 327 326 326 327 327 327 327 328 328 327 329 327 328 327 325 324 322 323 324 324 326 328 326 326 319 326 330 330 328 327 327 303 300 299

GFSNE_sfc_thetae_060.txt.gz
Theta_e
335 334 333 333 333 332 331 328 323 317 319 325 325 331 333 333 335 334 333 326 326 323 323 325 326 327 327 327 327 328 328 327 329 328 328 327 327 326
334 333 332 332 333 332 331 330 328 323 318 325 328 330 332 334 332 336 333 327 323 322 323 323 323 324 323 323 323 325 325 325 325 325 326 326 326 327
333 332 332 334 333 332 332 329 328 327 322 325 328 330 330 330 333 330 332 329 324 322 323 321 319 319 319 320 321 322 323 322 323 324 324 324 325 327
332 332 329 334 331 332 330 327 328 328 326 320 323 324 327 330 332 331 331 331 327 323 321 319 317 316 316 316 317 317 317 318 319 321 322 322 324 327
332 330 330 331 327 329 330 328 329 329 328 321 319 322 322 327 325 325 324 323 323 322 318 317 316 316 316 315 314 314 312 312 313 315 318 320 321 323
330 328 326 324 325 326 328 328 329 326 326 319 319 318 320 322 321 318 316 319 319 322 320 319 317 317 315 313 313 313 312 310 310 312 313 313 314 315
329 328 326 325 321 319 325 326 327 326 322 319 318 317 316 317 316 317 315 316 317 318 317 319 319 317 313 313 316 315 312 310 310 310 309 308 308 309
326 325 324 321 319 314 316 317 322 326 320 320 317 315 315 316 317 315 315 313 310 320 316 315 318 314 314 314 313 311 310 309 309 308 308 307 306 306
327 323 323 326 322 326 314 315 315 316 320 323 317 317 315 317 317 315 315 314 312 315 316 312 317 314 316 316 310 309 307 307 307 306 306 305 304 303
325 325 323 326 326 327 327 326 326 326 325 326 322 319 319 319 319 319 317 315 315 316 317 309 314 314 317 317 308 307 306 304 304 304 304 304 302 301
326 324 325 327 308 308 327 325 323 318 307 305 306 305 304 305 314 318 314 312 310 311 316 312 313 313 315 316 311 305 304 303 302 302 303 302 301 301
323 319 307 320 301 304 328 326 319 318 316 315 313 309 311 308 310 320 317 312 311 310 315 312 313 315 314 317 314 307 306 302 302 301 302 302 301 302
323 321 321 300 300 302 309 326 319 320 313 317 316 316 316 317 317 318 318 316 314 314 317 319 315 315 315 313 315 311 310 309 306 303 300 300 300 301
323 325 315 298 298 303 313 302 305 313 320 317 315 314 315 315 317 318 318 319 320 321 319 319 318 316 313 313 311 315 314 314 309 309 309 305 299 299
316 301 297 296 297 303 299 303 305 321 319 316 314 315 316 318 320 318 318 319 319 324 322 321 321 323 319 316 312 312 312 313 313 312 314 313 310 302
309 309 304 305 306 306 309 316 324 322 319 317 316 318 318 318 318 318 317 318 320 320 324 324 324 323 320 318 317 315 314 313 313 314 315 317 318 316
314 317 315 314 317 319 320 322 322 320 319 318 318 317 317 317 317 322 319 318 319 318 319 323 324 322 320 318 315 317 319 318 320 318 317 316 319 320
318 315 313 314 315 317 319 320 321 317 320 319 318 318 318 316 317 320 322 321 319 320 319 320 320 317 318 319 317 318 321 322 323 324 323 320 320 323
318 316 315 315 316 317 319 319 319 321 321 320 319 319 319 319 315 318 321 322 321 321 320 319 318 316 314 312 318 311 317 320 321 321 323 321 320 321
319 317 316 317 317 318 318 318 320 321 322 321 319 318 318 319 318 319 321 320 321 321 321 320 318 317 316 316 318 321 303 322 321 321 320 321 321 313
321 319 318 318 319 320 320 321 321 321 321 323 323 322 323 322 321 321 321 305 309 321 321 319 321 304 324 324 319 319 322 303 316 323 319 319 319 320
323 323 320 320 320 321 321 322 324 321 323 325 325 325 325 324 323 322 323 322 321 321 320 320 322 323 321 320 317 317 319 322 308 305 305 311 316 312
325 324 323 322 322 324 324 325 325 326 326 326 326 326 326 324 325 324 324 324 323 322 320 318 318 319 318 319 312 317 319 321 323 323 320 306 302 301

GFSNE_sfc_thetae_063.txt.gz
Theta_e
326 326 324 324 325 325 323 321 316 311 312 318 318 327 330 332 334 332 329 327 326 323 323 324 327 327 328 328 328 327 328 328 327 327 329 328 327 325
327 326 325 325 326 325 323 322 320 317 313 318 320 324 329 332 334 330 328 326 323 322 323 323 323 323 324 323 323 325 325 324 325 325 326 326 326 327
327 326 325 325 325 324 323 323 322 320 316 320 322 324 327 328 329 327 326 325 323 322 323 321 320 319 320 320 321 322 322 323 322 323 324 324 324 325
325 325 325 329 323 324 321 322 322 322 319 316 322 320 323 328 328 328 327 327 326 322 320 318 318 316 316 317 317 317 317 318 319 321 321 321 323 326
325 324 323 324 323 325 324 321 322 326 320 318 318 320 323 326 323 323 323 322 324 323 318 317 316 316 316 315 315 314 313 313 313 315 317 319 321 322
325 323 321 322 321 324 325 322 324 322 319 317 318 317 320 321 321 318 317 320 319 322 321 320 317 316 315 314 315 314 312 310 310 311 312 312 314 316
322 321 321 322 319 319 325 323 323 320 318 316 317 317 317 318 316 317 316 316 317 318 317 318 319 318 316 315 318 316 312 310 310 309 309 309 309 310
320 319 321 320 318 315 316 317 321 320 316 316 315 317 316 316 317 316 316 315 311 320 316 315 319 316 314 316 313 310 309 309 309 308 308 307 306 306
320 320 322 324 321 321 312 315 315 315 316 317 317 317 316 317 317 316 317 314 312 316 317 312 316 313 315 314 309 308 308 307 307 306 306 306 305 304
322 322 321 322 321 322 320 322 322 319 318 319 318 319 319 319 319 318 315 314 316 316 317 309 315 313 315 316 307 307 306 305 304 305 305 304 303 302
323 322 322 323 310 306 322 317 314 312 306 307 307 304 303 306 314 316 314 314 311 311 314 312 313 313 315 314 313 306 305 303 303 303 303 303 302 301
318 318 306 314 301 308 321 316 314 313 313 313 311 306 310 308 309 318 317 313 311 310 314 312 312 313 309 313 313 308 305 302 302 302 302 302 301 302
317 318 312 299 300 304 309 319 314 315 310 316 315 315 317 317 318 318 317 316 313 311 313 314 311 312 311 309 310 309 307 306 304 303 300 300 300 302
318 317 309 297 299 300 311 300 303 310 316 315 314 314 314 315 317 318 317 317 319 318 317 318 314 312 311 308 308 309 307 307 306 307 306 304 300 299
313 308 297 297 298 302 300 301 306 317 315 314 313 314 315 316 318 317 318 318 319 319 319 315 316 314 312 309 309 309 308 310 310 309 308 308 309 303
303 306 305 306 305 307 308 312 319 316 315 315 314 315 317 317 315 316 314 315 316 316 317 317 317 318 315 314 313 311 310 309 310 311 312 311 311 311
312 315 317 317 317 317 320 320 319 318 316 316 316 315 315 316 314 316 315 315 314 313 314 316 318 319 317 314 311 311 311 312 313 312 309 310 312 314
315 315 314 316 317 317 318 317 317 315 317 318 317 316 312 311 313 316 317 313 314 314 314 316 317 314 314 315 315 313 312 314 316 318 315 312 315 318
315 314 314 315 317 318 318 318 318 317 318 318 317 317 316 313 310 317 317 316 316 316 318 317 315 313 309 310 313 308 312 312 311 313 317 316 318 320
316 315 315 317 317 318 317 318 319 318 318 318 317 318 317 315 315 316 317 317 317 317 316 314 315 315 312 310 310 315 300 315 313 315 317 318 319 310
316 317 317 318 318 318 318 319 318 319 319 319 318 316 316 317 317 315 315 303 307 316 315 315 317 304 319 316 313 315 319 300 313 318 316 315 315 313
318 317 318 318 317 319 319 319 319 316 316 317 317 316 317 317 316 316 316 316 314 314 316 319 317 312 311 314 314 314 315 317 307 303 305 311 319 312
322 319 319 319 319 320 320 318 317 318 317 320 321 321 320 319 320 320 318 318 317 316 319 317 315 313 314 316 310 313 313 315 317 317 318 305 302 302

GFSNE_sfc_thetae_069.txt.gz
Theta_e
324 323 320 320 320 320 317 316 313 308 308 314 315 321 323 325 328 327 326 326 326 322 321 323 325 327 329 328 330 330 330 330 331 330 329 329 327 326
323 322 320 320 320 320 319 317 315 312 308 313 315 323 327 326 331 327 326 326 323 320 321 322 321 323 324 325 325 326 326 326 326 327 327 327 327 326
322 322 322 321 320 320 319 318 316 315 311 319 322 323 321 325 326 324 326 324 322 321 322 322 319 320 321 322 322 322 323 324 323 323 324 324 324 325
323 322 321 323 320 320 319 318 317 316 315 315 319 322 323 326 325 325 325 325 324 322 320 318 318 317 319 317 317 318 318 318 318 320 321 321 322 324
323 322 321 320 319 319 319 317 319 320 317 315 317 322 323 324 321 322 322 322 322 321 317 317 317 317 317 317 316 315 313 311 312 314 316 318 319 321
322 321 320 320 320 319 319 318 318 317 317 315 318 319 320 322 322 319 317 320 320 322 320 318 318 318 318 316 316 315 310 309 309 310 311 311 312 314
320 320 319 319 320 318 319 319 319 318 318 316 313 317 317 318 318 317 315 316 317 319 319 320 321 321 318 316 319 316 310 309 308 308 308 307 307 309
317 316 316 317 316 315 314 316 320 319 317 314 310 317 317 317 318 317 316 316 313 319 317 315 320 317 318 320 315 311 308 308 308 307 307 306 305 305
316 315 317 321 319 320 311 311 312 312 315 317 313 314 318 318 319 317 314 311 313 316 317 312 317 313 316 315 309 309 306 306 306 306 306 306 305 303
315 318 319 320 320 320 318 321 321 320 319 319 318 316 316 320 321 320 315 315 316 315 317 310 314 312 315 315 307 306 305 304 304 305 305 304 303 301
317 318 319 320 308 305 321 320 317 314 305 305 306 304 302 305 313 317 315 314 311 312 315 313 313 312 314 313 312 306 305 303 301 301 303 304 302 301
318 315 303 314 300 301 319 318 315 313 313 313 313 307 308 308 307 320 318 314 312 311 313 312 313 313 310 314 314 313 310 302 302 302 302 303 302 304
316 313 313 299 298 298 306 317 313 313 310 315 315 315 315 315 317 317 319 317 313 308 313 313 312 313 312 310 312 314 310 308 307 306 301 301 301 303
313 314 311 296 295 298 307 297 300 309 316 315 315 314 314 315 316 317 317 316 316 314 313 314 313 313 312 309 309 310 309 310 307 308 306 305 301 300
314 309 297 296 295 299 298 299 303 315 315 314 313 313 315 317 316 316 317 318 318 316 317 316 316 314 313 310 309 309 307 308 307 309 306 306 307 304
303 305 304 303 303 303 305 310 314 313 314 314 313 314 316 316 315 315 315 316 313 314 317 319 317 317 313 313 312 310 309 309 306 306 306 306 306 307
309 311 314 313 311 312 315 315 314 311 314 314 314 314 314 315 314 315 313 311 311 311 311 314 315 316 315 314 311 311 310 308 309 307 306 306 308 311
314 315 314 314 313 314 315 313 313 311 314 315 314 314 314 313 313 314 315 313 314 314 312 313 312 312 313 314 314 313 310 309 310 309 307 307 310 314
315 315 315 315 315 317 316 315 313 315 316 315 314 314 314 314 312 313 314 313 313 314 314 313 311 310 306 305 312 308 313 311 308 306 308 308 308 312
315 315 316 317 318 317 316 315 315 316 316 316 315 314 314 313 313 313 313 313 313 314 314 314 314 312 308 308 309 311 299 313 308 307 307 308 310 305
314 316 317 318 318 318 318 317 316 316 315 316 316 316 314 313 312 313 314 302 305 314 313 313 315 299 317 315 310 313 316 299 310 311 310 309 310 310
316 316 317 318 319 319 318 318 317 314 316 316 315 316 316 315 313 313 314 314 313 313 314 314 315 313 312 312 312 312 311 314 302 301 302 308 311 307
317 317 317 319 319 320 319 318 316 317 317 316 317 317 317 316 317 316 315 315 314 312 312 312 311 311 314 312 308 312 309 311 310 312 315 302 301 302

GFSNE_sfc_thetae_072.txt.gz
Theta_e
330 329 328 326 326 326 324 324 323 316 317 321 323 327 329 330 331 334 333 327 326 322 322 322 324 327 328 329 329 330 330 331 331 331 332 330 329 328
329 327 326 326 326 326 324 323 322 321 318 320 322 325 329 331 333 332 331 327 323 321 319 320 320 322 324 324 325 327 328 327 327 327 328 328 327 327
328 327 326 326 326 326 325 324 323 322 319 322 324 326 326 327 326 327 328 326 326 320 320 320 318 319 321 321 323 324 324 324 324 324 325 325 325 325
326 327 326 326 326 326 325 324 324 323 322 319 322 324 324 327 325 325 326 326 327 322 319 318 317 318 318 319 318 318 318 319 319 320 321 322 323 324
327 326 326 326 325 325 325 324 324 323 323 320 320 324 324 325 323 324 324 323 323 321 317 316 316 317 316 316 316 315 313 312 312 314 317 319 320 321
327 327 326 325 325 325 325 325 324 323 322 320 320 321 322 323 322 319 317 320 320 322 320 319 317 317 317 316 317 315 311 309 309 310 311 311 312 314
325 325 325 324 321 322 325 325 323 322 321 320 320 320 319 320 318 319 319 319 319 322 320 322 322 322 320 318 320 316 311 309 308 308 308 307 307 309
323 323 323 319 316 312 312 315 322 322 319 318 317 317 320 319 318 318 318 319 317 321 319 317 323 320 322 327 315 310 308 308 308 307 307 306 306 304
323 321 321 322 320 321 311 311 313 312 315 319 318 320 320 320 320 319 320 319 316 318 319 313 318 317 323 319 309 308 307 306 305 306 306 306 305 301
322 321 322 323 322 322 319 321 323 320 320 321 322 322 325 325 324 323 319 317 318 317 321 311 316 313 317 319 307 306 305 304 304 304 305 304 303 300
321 321 322 322 308 304 320 321 319 316 305 304 305 306 304 306 315 319 317 317 313 315 317 317 314 313 316 316 315 305 304 303 302 303 303 303 301 300
320 318 305 315 300 301 323 320 317 315 315 316 315 309 308 309 308 322 321 316 315 314 317 317 315 315 312 317 315 314 313 303 302 300 301 301 300 314
320 319 317 300 298 299 307 321 316 315 312 317 317 317 317 318 321 323 324 320 319 317 317 320 317 317 318 316 316 317 316 314 316 312 301 301 300 306
319 319 311 297 296 297 307 297 300 309 317 317 316 315 315 316 318 320 320 320 320 322 320 322 318 319 315 313 312 313 315 317 318 318 317 309 300 300
319 310 297 295 295 299 297 299 303 317 317 316 315 315 317 318 318 318 319 320 319 318 321 322 322 320 318 316 315 314 310 313 318 318 318 316 316 316
303 306 304 303 303 302 305 310 316 317 316 315 314 316 317 316 315 316 317 317 316 316 320 322 321 319 315 317 314 316 316 315 316 316 316 316 317 316
309 313 314 312 311 313 315 315 315 317 316 315 315 315 315 315 314 316 316 316 315 315 314 316 318 318 319 317 314 314 316 319 319 318 314 317 319 319
314 315 314 313 312 314 314 314 314 312 317 316 316 315 314 314 314 315 315 316 318 318 317 318 316 315 314 316 315 318 319 319 321 320 318 316 319 323
316 315 315 314 314 316 314 314 314 315 317 316 316 316 315 314 312 314 314 316 316 318 317 314 314 313 309 309 319 309 320 320 319 318 318 317 317 320
317 316 316 316 317 317 317 316 316 316 317 316 316 316 316 314 314 313 314 313 314 314 315 314 313 313 314 314 314 319 299 321 319 319 318 316 316 306
316 317 319 318 318 318 318 318 318 317 317 317 316 316 316 315 314 315 314 302 306 316 315 315 316 301 319 319 317 319 323 299 313 320 319 316 319 321
317 317 318 319 319 319 319 318 318 315 317 318 319 317 316 316 315 316 318 317 316 314 315 317 318 319 317 317 318 318 319 322 305 301 302 309 320 317
318 317 319 320 321 320 319 319 318 318 318 318 318 319 318 316 317 318 317 317 316 315 318 317 317 317 316 315 310 317 318 320 319 319 321 301 299 301

GFSNE_sfc_thetae_075.txt.gz
Theta_e
342 343 340 338 338 338 337 334 328 322 324 330 332 332 338 338 337 338 339 329 327 322 322 323 325 327 329 330 331 331 331 332 332 333 333 332 331 330
338 341 340 339 339 337 335 334 332 328 323 332 333 331 333 334 336 339 339 329 325 322 321 321 321 323 325 325 325 327 329 328 328 328 330 330 329 328
341 340 339 340 336 335 335 334 332 330 326 328 328 331 330 331 332 332 332 336 334 320 321 319 318 319 320 321 322 324 325 325 325 325 326 326 326 326
336 339 337 335 337 337 335 335 333 333 330 329 326 327 328 328 331 329 329 332 337 323 320 317 317 317 318 319 319 319 319 319 320 321 322 323 323 325
338 338 336 337 336 334 334 334 334 333 332 329 327 328 327 327 326 327 326 328 328 322 317 316 316 317 318 318 317 316 314 314 313 315 318 319 321 322
338 338 336 336 336 335 335 335 335 332 331 329 327 325 325 326 328 323 323 325 324 326 322 321 319 316 316 316 316 316 312 311 310 310 311 312 313 315
338 337 338 333 326 329 334 335 334 331 330 328 324 323 323 322 324 323 320 320 323 325 326 327 327 325 322 317 321 318 312 310 309 309 309 307 307 309
335 335 335 323 321 313 312 314 327 332 330 325 325 323 324 323 321 322 321 320 318 325 323 321 326 324 325 326 316 311 309 309 308 308 307 306 306 306
336 334 332 331 326 330 313 311 312 313 316 332 323 322 324 324 322 319 321 324 322 322 324 319 323 321 326 321 310 308 307 307 306 306 306 305 304 302
336 335 334 332 330 328 328 327 329 325 324 325 323 324 330 331 326 324 324 322 323 322 329 317 318 317 322 325 307 307 305 304 305 305 305 304 303 301
333 333 332 331 308 305 327 327 325 320 307 305 307 309 307 310 321 327 324 322 319 319 324 324 317 316 319 321 319 306 304 303 303 303 304 304 302 301
331 328 307 321 300 301 329 326 322 318 319 318 316 311 312 314 308 329 327 322 320 316 325 324 320 318 315 319 321 321 314 303 302 302 302 303 301 317
328 327 326 302 298 298 306 326 322 323 314 320 322 321 322 321 324 327 329 328 323 321 326 328 323 324 323 321 322 322 320 320 317 314 301 300 300 307
327 329 321 297 296 298 309 298 300 311 323 320 321 320 318 319 322 324 328 329 326 326 328 331 326 326 325 322 322 322 323 325 321 324 328 315 300 299
329 314 298 295 295 301 297 299 304 323 323 320 319 319 320 322 324 322 323 324 323 324 325 331 329 329 325 323 323 321 313 316 319 324 327 328 326 326
306 312 307 305 302 307 308 313 323 323 321 319 319 320 320 320 319 320 319 320 320 318 324 326 330 328 325 323 322 318 317 317 317 323 327 327 327 325
315 317 316 316 314 315 318 320 321 322 322 319 318 318 317 317 316 318 319 319 318 318 320 325 327 326 322 324 319 322 317 319 324 325 325 324 325 326
319 319 317 316 315 316 317 318 319 316 322 318 318 317 316 315 314 316 318 317 322 321 322 324 322 321 319 323 318 318 320 319 321 326 326 323 323 327
321 320 318 316 316 317 319 319 317 320 322 320 319 317 316 316 313 315 315 318 319 322 324 324 324 322 315 311 319 310 318 322 324 324 326 325 323 326
321 319 321 318 318 320 318 317 319 318 319 319 320 319 317 315 317 318 318 320 319 320 322 322 320 315 315 314 316 323 300 325 325 324 325 327 324 307
318 319 321 322 320 320 320 321 319 319 318 319 319 319 319 317 315 316 315 302 306 316 317 315 317 300 319 321 320 322 327 300 314 327 327 324 323 324
320 320 323 321 320 322 321 321 320 321 322 322 320 319 319 319 317 317 316 316 318 317 319 322 320 319 318 319 322 323 327 329 310 301 302 308 323 320
323 321 320 321 321 326 324 322 322 320 322 321 321 322 319 317 318 318 319 323 323 318 318 320 318 318 317 320 316 323 325 326 326 325 326 300 298 299